Regional Weather Roundup
Issued by NWS Cleveland, OH

Home | Current Version | Previous Version | Graphics & Text | Print | Product List | Glossary On
Versions: 1 2 3 4 5 6 7 8 9 10 11 12 13 14 15 16 17 18 19 20 21 22 23 24 25 26 27 28 29 30 31 32 33 34 35 36 37 38 39 40 41 42 43 44 45 46 47 48 49 50
398
ASUS41 KCLE 290100
RWRCLE
OHIO REGIONAL WEATHER ROUNDUP
NATIONAL WEATHER SERVICE WILMINGTON, OH
900 PM EDT SUN AUG 28 2016

NOTE: "FAIR" INDICATES FEW OR NO CLOUDS BELOW 12,000 FEET WITH NO
SIGNIFICANT WEATHER AND/OR OBSTRUCTIONS TO VISIBILITY.

OHZ001>008-015>018-024>027-034-035-043-044-290200-
   NORTHWEST OHIO

CITY           SKY/WX    TMP DP  RH WIND       PRES   REMARKS
DEFIANCE       FAIR      73  69  87 CALM      30.18R
FINDLAY        FAIR      78  70  76 E3        30.18R
TOLEDO EXPRESS FAIR      73  73 100 CALM      30.17R
TOLEDO EXEC    FAIR      77  74  90 CALM      30.19R
LIMA           FAIR      70  70 100 CALM      30.19R
$$

OHZ009>014-019>023-028>033-038-089-290200-
   NORTHEAST OHIO

CITY           SKY/WX    TMP DP  RH WIND       PRES   REMARKS
CLE-HOPKINS    MOCLDY    78  71  79 W7        30.21R
CLE-LAKEFRONT  FAIR      78  73  84 W5        30.17S
CUY CO. ARPT   MOCLDY    77  75  94 CALM      30.20R
LORAIN-ELYRIA  FAIR      71  68  90 CALM      30.20S
ASHTABULA      FAIR      74  74 100 N3        30.19F
AKRON-CANTON   MOCLDY    72  65  78 W7        30.20S
WOOSTER        NOT AVBL
MANSFIELD      FAIR      74  66  76 CALM      30.21F
YOUNGSTOWN     LGT RAIN  73  70  90 NW6       30.19S
$$

OHZ042-051>053-060>062-070>072-077>081-290200-
  SOUTHWEST OHIO

CITY           SKY/WX    TMP DP  RH WIND       PRES   REMARKS
CINC-COVINGTON TSTM      72  71  97 SE9       30.20R
CINC-LUNKEN    NOT AVBL
HAMILTON       MOCLDY    74  67  78 E7        30.20S
DAYTON         CLOUDY    73  68  84 SE13      30.21R THUNDER
WRIGHT-PAT AFB TSTM      72  68  88 E24G38    30.21R
DAYTON GENERAL CLOUDY    76  67  73 SW9       30.22R THUNDER
WILMINGTON     MOCLDY    75  67  76 W15       30.20R THUNDER HAZE
$$

OHZ036-037-039>041-045>050-054>059-063>069-073>076-082>088-290200-
  CENTRAL AND SOUTHEAST OHIO

CITY           SKY/WX    TMP DP  RH WIND       PRES   REMARKS
COLUMBUS       MOCLDY    73  67  81 N7        30.16F
OSU AIRPORT    FAIR      75  68  78 CALM      30.18R
BOLTON FIELD   NOT AVBL
RICKENBACK AFB NOT AVBL
NEWARK         FAIR      78  73  84 CALM      30.17S
MARION         FAIR      75  69  81 E3        30.19F
LANCASTER      FAIR      74  67  78 CALM      30.17S
ZANESVILLE     FAIR      77  64  64 NE8       30.18R
NEW PHILLY     FAIR      72  67  84 CALM      30.20R
$$




USA.gov is the U.S. government's official web portal to all federal, state and local government web resources and services.